Regional Weather Roundup
Issued by NWS

Home | Current Version | Previous Version | Graphics & Text | Print | Product List | Glossary On
Versions: 1 2 3 4 5 6 7 8 9 10 11 12 13 14 15 16 17 18 19 20 21 22 23 24 25 26 27 28 29 30 31 32 33 34 35 36 37 38 39 40 41 42 43 44 45 46 47 48 49 50
000
ASUS43 KMPX 222201
RWRMN
WEATHER ROUNDUP FOR MINNESOTA
NATIONAL WEATHER SERVICE TWIN CITIES/CHANHASSEN MN
500 PM CDT TUE JUL 22 2014


NOTE: "FAIR" INDICATES FEW OR NO CLOUDS BELOW 12,000 FEET WITH NO
SIGNIFICANT WEATHER AND/OR OBSTRUCTIONS TO VISIBILITY. N/A MEANS
CURRENT SKY AND/OR WEATHER CONDITIONS ARE NOT AVAILABLE.

MNZ060>063-068>070-222300-
   Twin Cities Metro

CITY           SKY/WX    TMP DP  RH WIND       PRES   REMARKS
TWIN CITIES    MOSUNNY   86  56  35 N12       30.05R
ST PAUL        MOSUNNY   83  61  47 N10       30.04R
CRYSTAL        MOSUNNY   84  60  44 NW12      30.04R
BLAINE         MOSUNNY   82  61  47 NW9G16    30.05R
LAKEVILLE      MOSUNNY   81  63  54 NW8       30.06R
EDEN PRAIRIE   MOSUNNY   84  61  45 NW10      30.05R
SOUTH ST PAUL  SUNNY     83  59  43 NE9       30.04R
LAKE ELMO      FAIR      81  63  54 N10G17    30.06R
$$
MNZ001>005-007-008-013>017-022>024-027-028-222300-
   Northwest Minnesota

CITY           SKY/WX    TMP DP  RH WIND       PRES   REMARKS
BEMIDJI        MOSUNNY   75  52  44 NW15G22   30.14R
HALLOCK        SUNNY     75  52  43 NW12G18   30.16S
ROSEAU         MOSUNNY   75  55  50 N12       30.14S
WARROAD        MOSUNNY   75  55  50 NW16G24   30.14R
THIEF RVR FALL PTSUNNY   73  55  53 NW13G18   30.16S
CROOKSTON      SUNNY     75  57  53 N14G21    30.17S
FOSSTON        SUNNY     75  55  50 NW12      30.17R
DETROIT LAKES  SUNNY     73  55  53 N15G24    30.17R
MOORHEAD       SUNNY     77  63  61 N14       30.17R
PARK RAPIDS    SUNNY     76  49  38 NW21G26   30.13R
$$
MNZ006-009>011-018-025>026-222300-
   North Central Minnesota

CITY           SKY/WX    TMP DP  RH WIND       PRES   REMARKS
BAUDETTE       SUNNY     75  51  43 NW13      30.13S
FLAG ISLAND    MOSUNNY   73  52  46 NW15      30.11S
INTL FALLS     MOSUNNY   76  54  46 NW10      30.09R
WASKISH        PTSUNNY   73  55  53 N6        30.13R
LONGVILLE      SUNNY     75  55  50 NW7       30.12R
GRAND RAPIDS   SUNNY     75  48  38 NW16      30.10R
CRANE LAKE     MOSUNNY   72  54  53 NW8       30.09R
ORR            SUNNY     73  52  46 NW7       30.07R
COOK           SUNNY     72  54  53 N7        30.09R
$$
MNZ012-019>021-037-222300-
   Northeast Minnesota

CITY           SKY/WX    TMP DP  RH WIND       PRES   REMARKS
DULUTH         MOSUNNY   78  56  46 NW13G21   30.05R
ELY            MOSUNNY   73  52  46 N7        30.07R
HIBBING        MOSUNNY   76  54  46 N13       30.08R
DULUTH HARBOR  MOSUNNY   73  59  60 N9        30.04R
TWO HARBORS    MOSUNNY   73  57  56 N5        30.03R
SILVER BAY     SUNNY     72  59  64 NW8       30.03R
GRAND MARAIS     N/A     75  55  49 VRB7      30.00R
G MARAIS ARPRT MOSUNNY   68  52  56 NW9G23    30.05R
$$
MNZ029>031-032-039>041-046>048-054>057-064-222300-
   West Central Minnesota

CITY           SKY/WX    TMP DP  RH WIND       PRES   REMARKS
FERGUS FALLS   SUNNY     75  52  43 N13G20    30.15R
WHEATON        SUNNY     75  57  53 N12       30.18R
MORRIS         SUNNY     79  57  47 N18       30.15R
ALEXANDRIA     MOSUNNY   77  52  41 N16       30.16R
ELBOW LAKE     FAIR      75  55  50 N17G24    30.15R
WADENA         SUNNY     75  54  46 N16G23    30.13R
GLENWOOD       MOSUNNY   79  54  41 NW14      30.15R
APPLETON       SUNNY     82  54  36 N9G21     30.15R
BENSON         SUNNY     79  57  47 N13       30.15R
ORTONVILLE     SUNNY     79  55  44 N12       30.17R
MADISON        SUNNY     81  57  44 N13       30.16R
WILLMAR        FAIR      82  50  32 N16G22    30.14R
$$
MNZ033>034-036-042>043-049>051-058-059-222300-
   Central Minnesota

CITY           SKY/WX    TMP DP  RH WIND       PRES   REMARKS
ST CLOUD       MOSUNNY   81  52  36 N13G20    30.08R
SAUK CENTRE    FAIR      76  54  45 NW10      30.12S
PAYNESVILLE    HVY RAIN  78  51  39 NW9G16    30.12R
AITKIN         MOSUNNY   79  57  47 N12       30.08R
PINE RIVER     MOSUNNY   75  54  46 NW12G21   30.14R
BRAINERD       MOSUNNY   77  53  43 N14       30.10R
STAPLES        MOSUNNY   77  50  38 N10G20    30.12R
LONG PRAIRIE   FAIR      77  52  41 NW13G18   30.13R
LITTLE FALLS   MOSUNNY   79  50  36 NW13      30.10R
LITCHFIELD     SUNNY     82  55  39 N13G18    30.11R
BUFFALO        SUNNY     82  51  34 N10       30.09R
MAPLE LAKE     SUNNY     82  56  40 N12G18    30.10R
$$
MNZ037-044-045-052-053-222300-
   East Central Minnesota

CITY           SKY/WX    TMP DP  RH WIND       PRES   REMARKS
PRINCETON      MOSUNNY   82  55  39 N12       30.08R
MORA           MOSUNNY   73  54  49 NW12      30.08R
CAMBRIDGE      MOSUNNY   82  61  47 NW12G18   30.05R
RUSH CITY      MOSUNNY   79  61  53 NW7       30.06R
MOOSE LAKE     MOSUNNY   79  55  44 NW9       30.04R
HINCKLEY       MOCLDY    79  61  53 NW8       30.06R
CLOQUET        MOSUNNY   79  54  41 NW15      30.06R
MCGREGOR       SUNNY     77  57  50 NW10G16   30.08R
$$
MNZ071>073-080-081-089-090-097-098-222300-
   Southwest Minnesota

CITY           SKY/WX    TMP DP  RH WIND       PRES   REMARKS
MONTEVIDEO     MOSUNNY   81  57  44 NE16      30.16R
GRANITE FALLS  MOSUNNY   81  56  42 NW10G17   30.15R
CANBY          SUNNY     82  55  39 N8        30.18R
MARSHALL       SUNNY     81  55  41 N17       30.15R
REDWOOD FALLS  MOSUNNY   82  57  42 NW15G22   30.12R
OLIVIA         MOSUNNY   81  54  39 N13         N/A
PIPESTONE      SUNNY     81  55  41 NE9       30.19R
WINDOM         SUNNY     82  55  39 NW13      30.14R
WORTHINGTON    SUNNY     79  61  53 N9        30.17S
JACKSON        SUNNY     81  61  50 NW10      30.15R
TRACY          SUNNY     80  59  48 N12       30.16R
SLAYTON        SUNNY     79  55  43 N6G17     30.18R
$$
MNZ065>067-074>077-082>085-091>093-222300-
   South Central Minnesota

CITY           SKY/WX    TMP DP  RH WIND       PRES   REMARKS
MANKATO        MOSUNNY   82  61  47 NW12G18   30.08R
NEW ULM        SUNNY     82  59  44 N13G20    30.09S
ST JAMES       SUNNY     82  55  39 NW8       30.11R
FAIRMONT       MOSUNNY   82  61  47 NW12      30.11R
GLENCOE        SUNNY     83  54  37 NW9       30.08R
FARIBAULT      MOSUNNY   86  55  35 NW9       30.07R
OWATONNA       MOSUNNY   82  63  51 N9        30.07S
WASECA         PTSUNNY   81  59  47 NW10      30.09S
ALBERT LEA     MOSUNNY   82  64  54 NW10      30.07S
$$
MNZ078>079-086>088-094>096-222300-
   Southeast Minnesota

CITY           SKY/WX    TMP DP  RH WIND       PRES   REMARKS
ROCHESTER      MOSUNNY   81  67  62 NW9       30.06R
RED WING       MOSUNNY   84  59  42 NW9G16    30.02S
STANTON        SUNNY     82  60  47 NW9       30.04R
DODGE CENTER   MOSUNNY   81  66  61 NW13      30.07R
WINONA         SUNNY     84  64  51 NW13G18   30.00R
AUSTIN         MOSUNNY   84  63  48 W14       30.06R
PRESTON        SUNNY     81  72  73 NW14      30.04S
$$
ABBREVIATIONS USED IN REMARKS
   TC - TEMPERATURES IN CELSIUS
  WCI - WIND CHILL INDEX
   HX - HEAT INDEX
  VSB - VISIBILITY
$$



USA.gov is the U.S. government's official web portal to all federal, state and local government web resources and services.